Location: Beaurecueil
(43.5122°N, 5.5450°E)
Time: 09:44:03
(UTC+00:00)

Meteor 1-21 - Visible Passes

Search period start: 18 June 2021 00:00
Search period end: 28 June 2021 00:00
Orbit: 844 x 887 km, 81.2° (Epoch: 17 June)

Date Brightness Start Highest point End Pass type
(mag) Time Alt. Az. Time Alt. Az. Time Alt. Az.
18 Jun 4.2 19:53:09 10° S 19:58:46 71° E 20:04:23 10° NNE visible
18 Jun 6.8 21:39:00 10° WSW 21:42:37 17° WNW 21:46:15 10° NNW visible
19 Jun 6.8 21:31:36 10° WSW 21:35:12 17° WNW 21:38:48 10° NNW visible
20 Jun 6.9 21:24:13 10° WSW 21:27:47 17° WNW 21:31:21 10° NNW visible
21 Jun 6.9 21:16:50 10° WSW 21:20:22 17° WNW 21:23:54 10° NNW visible
22 Jun 6.9 21:09:26 10° WSW 21:12:57 17° WNW 21:16:28 10° NNW visible
23 Jun 7.0 21:02:02 10° WSW 21:05:31 17° WNW 21:09:01 10° NNW visible
24 Jun 7.0 20:54:38 10° WSW 20:58:06 16° WNW 21:01:34 10° NNW visible
25 Jun 7.0 20:47:16 10° WSW 20:50:41 16° WNW 20:54:07 10° NNW visible
26 Jun 7.1 20:39:52 10° W 20:43:16 16° WNW 20:46:40 10° NNW visible
27 Jun 7.1 20:32:28 10° W 20:35:51 16° WNW 20:39:14 10° NNW visible
